| time (UTC) | temp F | wind direction | speed MPH | gust MPH | rain 1hr in | rain 24hr in | rain mn in | humidity % | barometer mb |
| 20260509201012 | 89 | 185 | 2.0 | 0.0 | 0.00 | 0.00 | 0.00 | 52 | 1009.5 |
| 20260509200548 | 89 | 272 | 1.0 | 0.0 | 0.00 | 0.00 | 0.00 | 53 | 1009.6 |
| 20260509200037 | 89 | 274 | 1.0 | 0.0 | 0.00 | 0.00 | 0.00 | 52 | 1009.6 |
| 20260509195515 | 89 | 275 | 1.0 | 0.0 | 0.00 | 0.00 | 0.00 | 52 | 1009.6 |
| 20260509195052 | 88 | 274 | 1.0 | 0.0 | 0.00 | 0.00 | 0.00 | 54 | 1009.6 |
| 20260509194540 | 88 | 272 | 1.0 | 0.0 | 0.00 | 0.00 | 0.00 | 55 | 1009.6 |
| 20260509194015 | 87 | 272 | 1.0 | 0.0 | 0.00 | 0.00 | 0.00 | 57 | 1009.5 |
| 20260509193549 | 87 | 272 | 1.0 | 0.0 | 0.00 | 0.00 | 0.00 | 54 | 1009.5 |
| 20260509193133 | 86 | 315 | 1.0 | 0.0 | 0.00 | 0.00 | 0.00 | 60 | 1009.6 |
| 20260509192527 | 86 | 315 | 1.0 | 0.0 | 0.00 | 0.00 | 0.00 | 61 | 1009.7 |
| 20260509192104 | 85 | 315 | 1.0 | 0.0 | 0.00 | 0.00 | 0.00 | 66 | 1009.7 |
| 20260509191612 | 85 | 309 | 2.0 | 0.0 | 0.00 | 0.00 | 0.00 | 67 | 1009.8 |
| 20260509191027 | 84 | 309 | 2.0 | 0.0 | 0.00 | 0.00 | 0.00 | 68 | 1010.0 |
| 20260509190501 | 84 | 126 | 2.0 | 0.0 | 0.00 | 0.00 | 0.00 | 71 | 1010.1 |
| 20260509190003 | 84 | 133 | 2.0 | 0.0 | 0.00 | 0.00 | 0.00 | 72 | 1010.3 |
| 20260509185547 | 84 | 86 | 1.0 | 0.0 | 0.00 | 0.00 | 0.00 | 72 | 1010.4 |
| 20260509185026 | 83 | 142 | 1.0 | 0.0 | 0.00 | 0.00 | 0.00 | 73 | 1010.4 |
| 20260509184531 | 82 | 142 | 1.0 | 0.0 | 0.00 | 0.00 | 0.00 | 73 | 1010.4 |
| 20260509184101 | 82 | 142 | 0.0 | 0.0 | 0.00 | 0.00 | 0.00 | 77 | 1010.5 |
| 20260509183536 | 82 | 142 | 0.0 | 0.0 | 0.00 | 0.00 | 0.00 | 77 | 1010.5 |
| 20260509183044 | 82 | 142 | 0.0 | 0.0 | 0.00 | 0.00 | 0.00 | 78 | 1010.6 |
| 20260509182513 | 81 | 142 | 0.0 | 0.0 | 0.00 | 0.00 | 0.00 | 79 | 1010.7 |
| 20260509182054 | 81 | 142 | 0.0 | 0.0 | 0.00 | 0.00 | 0.00 | 79 | 1010.7 |
| 20260509181602 | 80 | 142 | 0.0 | 0.0 | 0.00 | 0.00 | 0.00 | 78 | 1010.9 |
| 20260509181027 | 80 | 142 | 0.0 | 0.0 | 0.00 | 0.00 | 0.00 | 80 | 1011.0 |
| 20260509180605 | 80 | 142 | 0.0 | 0.0 | 0.00 | 0.00 | 0.00 | 80 | 1011.0 |
| 20260509180004 | 80 | 142 | 0.0 | 0.0 | 0.00 | 0.00 | 0.00 | 80 | 1011.0 |
| 20260509175540 | 80 | 142 | 0.0 | 0.0 | 0.00 | 0.00 | 0.00 | 80 | 1011.2 |
| 20260509175015 | 80 | 142 | 1.0 | 0.0 | 0.00 | 0.00 | 0.00 | 80 | 1011.1 |
| 20260509174516 | 80 | 142 | 1.0 | 0.0 | 0.00 | 0.00 | 0.00 | 81 | 1011.0 |
| 20260509174053 | 80 | 142 | 1.0 | 0.0 | 0.00 | 0.00 | 0.00 | 81 | 1011.0 |
| 20260509173525 | 80 | 142 | 1.0 | 0.0 | 0.00 | 0.00 | 0.00 | 84 | 1011.3 |
| 20260509173028 | 79 | 142 | 1.0 | 0.0 | 0.00 | 0.00 | 0.00 | 88 | 1011.2 |
| 20260509172503 | 78 | 142 | 0.0 | 0.0 | 0.00 | 0.00 | 0.00 | 85 | 1011.2 |
| 20260509172037 | 78 | 142 | 1.0 | 0.0 | 0.00 | 0.00 | 0.00 | 85 | 1011.4 |
| 20260509171540 | 78 | 142 | 1.0 | 0.0 | 0.00 | 0.00 | 0.00 | 84 | 1011.5 |
| 20260509171016 | 78 | 142 | 1.0 | 0.0 | 0.00 | 0.00 | 0.00 | 83 | 1011.6 |
| 20260509170552 | 79 | 142 | 0.0 | 0.0 | 0.00 | 0.00 | 0.00 | 84 | 1011.8 |
| 20260509170039 | 79 | 142 | 1.0 | 0.0 | 0.00 | 0.00 | 0.00 | 83 | 1011.7 |
| 20260509165512 | 80 | 142 | 0.0 | 0.0 | 0.00 | 0.00 | 0.00 | 82 | 1011.7 |
| 20260509165051 | 80 | 142 | 1.0 | 0.0 | 0.00 | 0.00 | 0.00 | 79 | 1011.5 |
| 20260509164601 | 80 | 142 | 2.0 | 0.0 | 0.00 | 0.00 | 0.00 | 79 | 1011.5 |
| 20260509164027 | 81 | 142 | 2.0 | 0.0 | 0.00 | 0.00 | 0.00 | 78 | 1011.4 |
| 20260509163604 | 81 | 142 | 2.0 | 0.0 | 0.00 | 0.00 | 0.00 | 77 | 1011.4 |
| 20260509163051 | 82 | 142 | 2.0 | 0.0 | 0.00 | 0.00 | 0.00 | 75 | 1011.2 |
| 20260509162524 | 83 | 105 | 2.0 | 0.0 | 0.00 | 0.00 | 0.00 | 74 | 1011.4 |
| 20260509162104 | 84 | 73 | 2.0 | 0.0 | 0.00 | 0.00 | 0.00 | 73 | 1011.4 |
| 20260509161502 | 84 | 71 | 2.0 | 0.0 | 0.00 | 0.00 | 0.00 | 73 | 1011.3 |
| 20260509161037 | 83 | 135 | 1.0 | 0.0 | 0.00 | 0.00 | 0.00 | 72 | 1011.1 |
| 20260509160510 | 83 | 201 | 0.0 | 0.0 | 0.00 | 0.00 | 0.00 | 72 | 1011.1 |
| 20260509160015 | 83 | 277 | 0.0 | 0.0 | 0.00 | 0.00 | 0.00 | 70 | 1011.1 |
| 20260509155550 | 83 | 277 | 0.0 | 0.0 | 0.00 | 0.00 | 0.00 | 69 | 1011.1 |
| 20260509155026 | 83 | 277 | 1.0 | 0.0 | 0.00 | 0.00 | 0.00 | 71 | 1011.1 |
| 20260509154529 | 83 | 277 | 2.0 | 0.0 | 0.00 | 0.00 | 0.00 | 71 | 1011.0 |
| 20260509154007 | 83 | 277 | 1.0 | 0.0 | 0.00 | 0.00 | 0.00 | 71 | 1010.9 |
| 20260509153542 | 83 | 290 | 1.0 | 0.0 | 0.00 | 0.00 | 0.00 | 72 | 1010.9 |
| 20260509153047 | 83 | 203 | 1.0 | 0.0 | 0.00 | 0.00 | 0.00 | 73 | 1010.8 |
| 20260509152520 | 83 | 203 | 2.0 | 0.0 | 0.00 | 0.00 | 0.00 | 72 | 1010.8 |
| 20260509152104 | 82 | 203 | 2.0 | 0.0 | 0.00 | 0.00 | 0.00 | 72 | 1010.8 |
| 20260509151609 | 82 | 203 | 1.0 | 0.0 | 0.00 | 0.00 | 0.00 | 73 | 1010.8 |
| 20260509151036 | 82 | 203 | 2.0 | 0.0 | 0.00 | 0.00 | 0.00 | 74 | 1010.7 |
| 20260509150506 | 82 | 197 | 2.0 | 0.0 | 0.00 | 0.00 | 0.00 | 75 | 1010.6 |
| 20260509150009 | 81 | 242 | 2.0 | 0.0 | 0.00 | 0.00 | 0.00 | 77 | 1010.5 |
| 20260509145548 | 81 | 173 | 2.0 | 0.0 | 0.00 | 0.00 | 0.00 | 77 | 1010.6 |
| 20260509145018 | 81 | 19 | 2.0 | 0.0 | 0.00 | 0.00 | 0.00 | 78 | 1010.5 |
| 20260509144530 | 80 | 240 | 2.0 | 0.0 | 0.00 | 0.00 | 0.00 | 79 | 1010.3 |
| 20260509144059 | 80 | 245 | 2.0 | 0.0 | 0.00 | 0.00 | 0.00 | 79 | 1010.2 |
| 20260509143529 | 80 | 146 | 2.0 | 0.0 | 0.00 | 0.00 | 0.00 | 80 | 1010.1 |
| 20260509143035 | 79 | 184 | 2.0 | 0.0 | 0.00 | 0.00 | 0.00 | 81 | 1010.0 |
| 20260509142511 | 79 | 128 | 3.0 | 0.0 | 0.00 | 0.00 | 0.00 | 83 | 1010.0 |
| 20260509142049 | 78 | 201 | 2.0 | 0.0 | 0.00 | 0.00 | 0.00 | 84 | 1009.9 |
| 20260509141536 | 77 | 166 | 2.0 | 0.0 | 0.00 | 0.00 | 0.00 | 86 | 1009.9 |
| 20260509141010 | 77 | 208 | 3.0 | 0.0 | 0.00 | 0.00 | 0.00 | 87 | 1009.8 |
| 20260509140547 | 76 | 150 | 3.0 | 0.0 | 0.00 | 0.00 | 0.00 | 87 | 1009.9 |
| 20260509140037 | 76 | 138 | 3.0 | 0.0 | 0.00 | 0.00 | 0.00 | 88 | 1010.0 |
| 20260509135514 | 75 | 228 | 2.0 | 0.0 | 0.00 | 0.00 | 0.00 | 89 | 1010.0 |
| 20260509135045 | 75 | 208 | 2.0 | 0.0 | 0.00 | 0.00 | 0.00 | 90 | 1010.0 |
| 20260509134551 | 75 | 207 | 2.0 | 0.0 | 0.00 | 0.00 | 0.00 | 91 | 1010.2 |
| 20260509134027 | 74 | 192 | 1.0 | 0.0 | 0.00 | 0.00 | 0.00 | 91 | 1010.1 |
| 20260509133606 | 74 | 194 | 1.0 | 0.0 | 0.00 | 0.00 | 0.00 | 91 | 1010.1 |
| 20260509133006 | 73 | 194 | 2.0 | 0.0 | 0.00 | 0.00 | 0.00 | 91 | 1010.0 |
| 20260509132541 | 73 | 211 | 3.0 | 0.0 | 0.00 | 0.00 | 0.00 | 91 | 1009.9 |
| 20260509132014 | 72 | 146 | 2.0 | 0.0 | 0.00 | 0.00 | 0.00 | 91 | 1009.7 |
| 20260509131519 | 72 | 204 | 1.0 | 0.0 | 0.00 | 0.00 | 0.00 | 90 | 1009.9 |
| 20260509131057 | 72 | 217 | 1.0 | 0.0 | 0.00 | 0.00 | 0.00 | 90 | 1009.9 |
| 20260509130530 | 72 | 217 | 1.0 | 0.0 | 0.00 | 0.00 | 0.00 | 90 | 1010.0 |
| 20260509130049 | 71 | 167 | 0.0 | 0.0 | 0.00 | 0.00 | 0.00 | 90 | 1009.9 |
| 20260509125504 | 71 | 167 | 0.0 | 0.0 | 0.00 | 0.00 | 0.00 | 90 | 1009.9 |
| 20260509125040 | 71 | 167 | 0.0 | 0.0 | 0.00 | 0.00 | 0.00 | 90 | 1010.0 |
| 20260509124545 | 71 | 167 | 0.0 | 0.0 | 0.00 | 0.00 | 0.00 | 91 | 1010.1 |
| 20260509124015 | 71 | 167 | 1.0 | 0.0 | 0.00 | 0.00 | 0.00 | 90 | 1010.2 |
| 20260509123557 | 71 | 167 | 1.0 | 0.0 | 0.00 | 0.00 | 0.00 | 90 | 1010.2 |
| 20260509123059 | 71 | 167 | 1.0 | 0.0 | 0.00 | 0.00 | 0.00 | 90 | 1010.2 |
| 20260509122535 | 71 | 159 | 1.0 | 0.0 | 0.00 | 0.00 | 0.00 | 90 | 1010.3 |
| 20260509122008 | 71 | 158 | 1.0 | 0.0 | 0.00 | 0.00 | 0.00 | 91 | 1010.5 |
| 20260509121513 | 71 | 158 | 1.0 | 0.0 | 0.00 | 0.00 | 0.00 | 90 | 1010.5 |
| 20260509121052 | 71 | 159 | 0.0 | 0.0 | 0.00 | 0.00 | 0.00 | 90 | 1010.5 |
| 20260509120522 | 71 | 159 | 1.0 | 0.0 | 0.00 | 0.00 | 0.00 | 91 | 1010.5 |
| 20260509120032 | 71 | 128 | 1.0 | 0.0 | 0.00 | 0.00 | 0.00 | 91 | 1010.6 |
| 20260509115602 | 71 | 128 | 1.0 | 0.0 | 0.00 | 0.00 | 0.00 | 91 | 1010.8 |
| 20260509115035 | 71 | 128 | 1.0 | 0.0 | 0.00 | 0.00 | 0.00 | 91 | 1010.7 |
| 20260509114540 | 71 | 128 | 0.0 | 0.0 | 0.00 | 0.00 | 0.00 | 91 | 1010.9 |
| 20260509114008 | 71 | 128 | 0.0 | 0.0 | 0.00 | 0.00 | 0.00 | 91 | 1011.0 |
| 20260509113547 | 71 | 128 | 0.0 | 0.0 | 0.00 | 0.00 | 0.00 | 91 | 1011.2 |
| 20260509113035 | 71 | 128 | 0.0 | 0.0 | 0.00 | 0.00 | 0.00 | 91 | 1011.5 |
| 20260509112511 | 71 | 128 | 0.0 | 0.0 | 0.00 | 0.00 | 0.00 | 91 | 1011.3 |
| 20260509112047 | 71 | 129 | 0.0 | 0.0 | 0.00 | 0.00 | 0.00 | 91 | 1011.5 |
| 20260509111551 | 71 | 128 | 0.0 | 0.0 | 0.00 | 0.00 | 0.00 | 91 | 1011.6 |
| 20260509111023 | 71 | 128 | 0.0 | 0.0 | 0.00 | 0.00 | 0.00 | 91 | 1011.6 |
| 20260509110601 | 71 | 129 | 1.0 | 0.0 | 0.00 | 0.00 | 0.00 | 91 | 1011.7 |
| 20260509110103 | 71 | 128 | 1.0 | 0.0 | 0.00 | 0.00 | 0.00 | 91 | 1011.8 |
| 20260509105535 | 71 | 128 | 0.0 | 0.0 | 0.00 | 0.00 | 0.00 | 91 | 1011.9 |
| 20260509105005 | 71 | 129 | 0.0 | 0.0 | 0.00 | 0.00 | 0.00 | 91 | 1012.1 |
| 20260509104555 | 71 | 128 | 0.0 | 0.0 | 0.00 | 0.00 | 0.00 | 91 | 1012.0 |
| 20260509104031 | 71 | 128 | 0.0 | 0.0 | 0.00 | 0.00 | 0.00 | 91 | 1012.1 |
| 20260509103508 | 71 | 128 | 1.0 | 0.0 | 0.00 | 0.00 | 0.00 | 91 | 1012.2 |
| 20260509103015 | 71 | 129 | 1.0 | 0.0 | 0.00 | 0.00 | 0.00 | 91 | 1012.1 |
| 20260509102549 | 71 | 128 | 0.0 | 0.0 | 0.00 | 0.00 | 0.00 | 91 | 1012.2 |
| 20260509102025 | 71 | 128 | 0.0 | 0.0 | 0.00 | 0.00 | 0.00 | 91 | 1012.0 |
| 20260509101533 | 71 | 129 | 0.0 | 0.0 | 0.00 | 0.00 | 0.00 | 91 | 1011.8 |
| 20260509101104 | 71 | 128 | 0.0 | 0.0 | 0.00 | 0.00 | 0.00 | 91 | 1011.8 |
| 20260509100537 | 71 | 129 | 1.0 | 0.0 | 0.00 | 0.00 | 0.00 | 91 | 1011.7 |
| 20260509100040 | 71 | 129 | 1.0 | 0.0 | 0.00 | 0.00 | 0.00 | 91 | 1011.6 |
| 20260509095510 | 71 | 129 | 0.0 | 0.0 | 0.00 | 0.00 | 0.00 | 91 | 1011.5 |
| 20260509095049 | 71 | 129 | 0.0 | 0.0 | 0.00 | 0.00 | 0.00 | 91 | 1011.4 |
| 20260509094540 | 71 | 129 | 0.0 | 0.0 | 0.00 | 0.00 | 0.00 | 91 | 1011.1 |
| 20260509094013 | 71 | 129 | 1.0 | 0.0 | 0.00 | 0.00 | 0.00 | 91 | 1011.2 |
| 20260509093551 | 71 | 129 | 1.0 | 0.0 | 0.00 | 0.00 | 0.00 | 91 | 1011.2 |
| 20260509093054 | 71 | 129 | 1.0 | 0.0 | 0.00 | 0.00 | 0.00 | 91 | 1011.2 |
| 20260509092527 | 71 | 142 | 1.0 | 0.0 | 0.00 | 0.00 | 0.00 | 91 | 1010.9 |
| 20260509092102 | 71 | 142 | 1.0 | 0.0 | 0.00 | 0.00 | 0.00 | 91 | 1010.7 |
| 20260509091502 | 71 | 142 | 0.0 | 0.0 | 0.00 | 0.00 | 0.00 | 91 | 1010.5 |
| 20260509091041 | 71 | 142 | 0.0 | 0.0 | 0.00 | 0.00 | 0.00 | 91 | 1010.3 |
| 20260509090517 | 71 | 142 | 0.0 | 0.0 | 0.00 | 0.00 | 0.00 | 91 | 1010.2 |
| 20260509090019 | 71 | 142 | 0.0 | 0.0 | 0.00 | 0.00 | 0.00 | 91 | 1010.3 |
| 20260509085602 | 71 | 142 | 0.0 | 0.0 | 0.00 | 0.00 | 0.00 | 91 | 1010.4 |
| 20260509085033 | 71 | 142 | 0.0 | 0.0 | 0.00 | 0.00 | 0.00 | 91 | 1010.5 |
| 20260509084539 | 72 | 142 | 0.0 | 0.0 | 0.00 | 0.00 | 0.00 | 91 | 1010.5 |
| 20260509084013 | 72 | 142 | 0.0 | 0.0 | 0.00 | 0.00 | 0.00 | 91 | 1010.6 |
| 20260509083547 | 72 | 142 | 0.0 | 0.0 | 0.00 | 0.00 | 0.00 | 91 | 1010.7 |
| 20260509083040 | 72 | 142 | 0.0 | 0.0 | 0.00 | 0.00 | 0.00 | 91 | 1010.8 |
| 20260509082511 | 72 | 142 | 0.0 | 0.0 | 0.00 | 0.00 | 0.00 | 91 | 1010.9 |
| 20260509082047 | 72 | 142 | 0.0 | 0.0 | 0.00 | 0.00 | 0.00 | 91 | 1010.9 |
| 20260509081537 | 72 | 142 | 0.0 | 0.0 | 0.00 | 0.00 | 0.00 | 91 | 1010.8 |
| 20260509081010 | 72 | 142 | 0.0 | 0.0 | 0.00 | 0.00 | 0.00 | 91 | 1010.8 |
| 20260509080547 | 72 | 142 | 0.0 | 0.0 | 0.00 | 0.00 | 0.00 | 91 | 1010.7 |
| 20260509080039 | 72 | 142 | 0.0 | 0.0 | 0.00 | 0.00 | 0.00 | 91 | 1010.7 |
| 20260509075507 | 72 | 142 | 0.0 | 0.0 | 0.00 | 0.00 | 0.00 | 91 | 1010.8 |
| 20260509075046 | 72 | 142 | 0.0 | 0.0 | 0.00 | 0.00 | 0.00 | 91 | 1010.9 |
| 20260509074557 | 72 | 142 | 0.0 | 0.0 | 0.00 | 0.00 | 0.00 | 91 | 1011.1 |
| 20260509074026 | 72 | 142 | 0.0 | 0.0 | 0.00 | 0.00 | 0.00 | 91 | 1011.4 |
| 20260509073607 | 72 | 142 | 0.0 | 0.0 | 0.00 | 0.00 | 0.00 | 91 | 1011.3 |
| 20260509073050 | 72 | 142 | 0.0 | 0.0 | 0.00 | 0.00 | 0.00 | 91 | 1011.2 |
| 20260509072523 | 72 | 142 | 0.0 | 0.0 | 0.00 | 0.00 | 0.00 | 91 | 1011.4 |
| 20260509072101 | 72 | 142 | 0.0 | 0.0 | 0.00 | 0.00 | 0.00 | 91 | 1011.6 |
| 20260509071555 | 72 | 142 | 0.0 | 0.0 | 0.00 | 0.00 | 0.00 | 91 | 1011.6 |
| 20260509071023 | 72 | 142 | 0.0 | 0.0 | 0.00 | 0.00 | 0.00 | 91 | 1011.4 |
| 20260509070605 | 72 | 142 | 0.0 | 0.0 | 0.00 | 0.00 | 0.00 | 91 | 1011.4 |
| 20260509070004 | 72 | 142 | 0.0 | 0.0 | 0.00 | 0.00 | 0.00 | 91 | 1011.0 |
| 20260509065539 | 72 | 142 | 0.0 | 0.0 | 0.00 | 0.00 | 0.00 | 91 | 1011.0 |
| 20260509065009 | 73 | 142 | 0.0 | 0.0 | 0.00 | 0.00 | 0.00 | 91 | 1011.2 |
| 20260509064603 | 73 | 142 | 0.0 | 0.0 | 0.00 | 0.00 | 0.00 | 91 | 1011.3 |
| 20260509064036 | 73 | 142 | 0.0 | 0.0 | 0.00 | 0.00 | 0.00 | 91 | 1011.1 |
| 20260509063506 | 73 | 142 | 0.0 | 0.0 | 0.00 | 0.00 | 0.00 | 91 | 1011.3 |
| 20260509063013 | 73 | 142 | 0.0 | 0.0 | 0.00 | 0.00 | 0.00 | 91 | 1011.3 |
| 20260509062553 | 73 | 142 | 1.0 | 0.0 | 0.00 | 0.00 | 0.00 | 91 | 1011.3 |
| 20260509062025 | 73 | 142 | 1.0 | 0.0 | 0.00 | 0.00 | 0.00 | 91 | 1011.4 |
| 20260509061528 | 73 | 142 | 1.0 | 0.0 | 0.00 | 0.00 | 0.00 | 91 | 1011.2 |
| 20260509061105 | 72 | 142 | 1.0 | 0.0 | 0.00 | 0.00 | 0.00 | 91 | 1011.2 |
| 20260509060541 | 72 | 142 | 0.0 | 0.0 | 0.00 | 0.00 | 0.00 | 91 | 1011.2 |
| 20260509060059 | 72 | 142 | 1.0 | 0.0 | 0.00 | 0.00 | 0.00 | 91 | 1011.3 |
| 20260509055512 | 72 | 142 | 0.0 | 0.0 | 0.00 | 0.00 | 0.00 | 91 | 1011.4 |
| 20260509055050 | 72 | 142 | 0.0 | 0.0 | 0.00 | 0.00 | 0.00 | 91 | 1011.3 |
| 20260509054602 | 72 | 142 | 0.0 | 0.0 | 0.00 | 0.00 | 0.00 | 91 | 1011.0 |
| 20260509054026 | 72 | 142 | 0.0 | 0.0 | 0.00 | 0.00 | 0.00 | 91 | 1010.6 |
| 20260509053601 | 72 | 142 | 0.0 | 0.0 | 0.00 | 0.00 | 0.00 | 91 | 1010.4 |
| 20260509053049 | 72 | 142 | 1.0 | 0.0 | 0.00 | 0.00 | 0.00 | 91 | 1010.2 |
| 20260509052521 | 72 | 142 | 1.0 | 0.0 | 0.00 | 0.00 | 0.00 | 91 | 1010.1 |
| 20260509051556 | 72 | 142 | 0.0 | 0.0 | 0.00 | 0.00 | 0.00 | 91 | 1010.1 |
| 20260509051029 | 72 | 142 | 0.0 | 0.0 | 0.00 | 0.00 | 0.00 | 91 | 1010.0 |
| 20260509050502 | 72 | 142 | 0.0 | 0.0 | 0.00 | 0.00 | 0.01 | 91 | 1009.9 |
| 20260509050006 | 72 | 142 | 0.0 | 0.0 | 0.00 | 0.00 | 0.01 | 91 | 1009.9 |
| 20260509045540 | 72 | 142 | 1.0 | 0.0 | 0.00 | 0.00 | 0.01 | 91 | 1009.8 |
| 20260509045016 | 72 | 142 | 1.0 | 0.0 | 0.00 | 0.00 | 0.01 | 91 | 1009.9 |
| 20260509044517 | 72 | 142 | 2.0 | 0.0 | 0.00 | 0.00 | 0.01 | 91 | 1010.0 |
| 20260509044056 | 72 | 142 | 2.0 | 0.0 | 0.00 | 0.00 | 0.01 | 91 | 1010.1 |
| 20260509043528 | 72 | 142 | 1.0 | 0.0 | 0.00 | 0.00 | 0.01 | 91 | 1010.1 |
| 20260509043033 | 72 | 142 | 0.0 | 0.0 | 0.00 | 0.00 | 0.01 | 91 | 1010.3 |
| 20260509042503 | 72 | 142 | 0.0 | 0.0 | 0.00 | 0.00 | 0.01 | 91 | 1010.5 |
| 20260509042039 | 72 | 142 | 0.0 | 0.0 | 0.00 | 0.00 | 0.01 | 91 | 1010.4 |
| 20260509041543 | 72 | 142 | 0.0 | 0.0 | 0.00 | 0.00 | 0.01 | 91 | 1010.5 |
| 20260509041012 | 72 | 142 | 1.0 | 0.0 | 0.00 | 0.00 | 0.01 | 91 | 1010.5 |
| 20260509040548 | 72 | 142 | 1.0 | 0.0 | 0.00 | 0.00 | 0.01 | 91 | 1010.4 |
| 20260509040040 | 72 | 142 | 1.0 | 0.0 | 0.00 | 0.00 | 0.01 | 91 | 1010.4 |
| 20260509035510 | 72 | 142 | 1.0 | 0.0 | 0.00 | 0.00 | 0.01 | 91 | 1010.4 |
| 20260509035052 | 72 | 142 | 1.0 | 0.0 | 0.00 | 0.00 | 0.01 | 91 | 1010.4 |
| 20260509034536 | 72 | 142 | 0.0 | 0.0 | 0.00 | 0.00 | 0.01 | 90 | 1010.4 |
| 20260509034012 | 72 | 142 | 1.0 | 0.0 | 0.00 | 0.00 | 0.01 | 90 | 1010.5 |
| 20260509033551 | 72 | 142 | 1.0 | 0.0 | 0.00 | 0.00 | 0.01 | 90 | 1010.3 |
| 20260509033059 | 72 | 142 | 1.0 | 0.0 | 0.00 | 0.00 | 0.01 | 90 | 1010.3 |
| 20260509032535 | 72 | 142 | 0.0 | 0.0 | 0.00 | 0.00 | 0.01 | 90 | 1010.2 |
| 20260509032004 | 72 | 142 | 0.0 | 0.0 | 0.00 | 0.00 | 0.01 | 90 | 1010.2 |
| 20260509031506 | 72 | 142 | 1.0 | 0.0 | 0.00 | 0.00 | 0.01 | 90 | 1010.2 |
| 20260509031044 | 72 | 142 | 2.0 | 0.0 | 0.00 | 0.00 | 0.01 | 90 | 1010.1 |
| 20260509030520 | 72 | 142 | 2.0 | 0.0 | 0.00 | 0.00 | 0.01 | 90 | 1009.9 |
| 20260509030033 | 72 | 142 | 2.0 | 0.0 | 0.00 | 0.00 | 0.01 | 90 | 1009.8 |
| 20260509025559 | 72 | 140 | 1.0 | 0.0 | 0.00 | 0.00 | 0.01 | 90 | 1009.8 |
| 20260509025029 | 72 | 140 | 1.0 | 0.0 | 0.00 | 0.00 | 0.01 | 90 | 1009.8 |
| 20260509024531 | 72 | 140 | 1.0 | 0.0 | 0.00 | 0.00 | 0.01 | 90 | 1009.7 |
| 20260509024004 | 72 | 135 | 2.0 | 0.0 | 0.00 | 0.00 | 0.01 | 90 | 1009.6 |
| 20260509023542 | 72 | 108 | 2.0 | 0.0 | 0.00 | 0.00 | 0.01 | 90 | 1009.6 |
| 20260509023059 | 72 | 84 | 2.0 | 0.0 | 0.00 | 0.00 | 0.01 | 90 | 1009.7 |
| 20260509022521 | 72 | 80 | 1.0 | 0.0 | 0.00 | 0.00 | 0.01 | 89 | 1009.6 |
| 20260509022100 | 72 | 80 | 1.0 | 0.0 | 0.00 | 0.00 | 0.01 | 89 | 1009.6 |
| 20260509021602 | 72 | 80 | 0.0 | 0.0 | 0.00 | 0.00 | 0.01 | 89 | 1009.6 |
| 20260509021035 | 73 | 80 | 0.0 | 0.0 | 0.00 | 0.00 | 0.01 | 88 | 1009.6 |
| 20260509020508 | 73 | 80 | 0.0 | 0.0 | 0.00 | 0.00 | 0.01 | 88 | 1009.5 |
| 20260509020059 | 73 | 80 | 0.0 | 0.0 | 0.00 | 0.00 | 0.01 | 88 | 1009.4 |
| 20260509015530 | 73 | 80 | 0.0 | 0.0 | 0.00 | 0.00 | 0.01 | 88 | 1009.3 |
| 20260509015004 | 73 | 80 | 0.0 | 0.0 | 0.00 | 0.00 | 0.01 | 87 | 1009.2 |
| 20260509014558 | 73 | 80 | 0.0 | 0.0 | 0.00 | 0.00 | 0.01 | 87 | 1009.3 |
| 20260509014031 | 73 | 80 | 0.0 | 0.0 | 0.00 | 0.00 | 0.01 | 87 | 1009.1 |
| 20260509013504 | 74 | 80 | 0.0 | 0.0 | 0.00 | 0.00 | 0.01 | 86 | 1009.2 |
| 20260509013014 | 74 | 80 | 0.0 | 0.0 | 0.00 | 0.00 | 0.01 | 86 | 1009.1 |
| 20260509012550 | 74 | 80 | 0.0 | 0.0 | 0.00 | 0.00 | 0.01 | 86 | 1009.1 |
| 20260509012023 | 74 | 80 | 1.0 | 0.0 | 0.00 | 0.00 | 0.01 | 85 | 1009.1 |
| 20260509011524 | 74 | 80 | 1.0 | 0.0 | 0.00 | 0.00 | 0.01 | 85 | 1009.1 |
| 20260509011106 | 74 | 79 | 1.0 | 0.0 | 0.00 | 0.00 | 0.01 | 85 | 1009.0 |
| 20260509010536 | 75 | 79 | 0.0 | 0.0 | 0.00 | 0.00 | 0.01 | 85 | 1009.0 |
| 20260509010041 | 75 | 79 | 1.0 | 0.0 | 0.00 | 0.00 | 0.01 | 85 | 1009.1 |
| 20260509005513 | 75 | 79 | 1.0 | 0.0 | 0.00 | 0.00 | 0.01 | 84 | 1009.1 |
| 20260509005051 | 75 | 71 | 1.0 | 0.0 | 0.00 | 0.00 | 0.01 | 84 | 1009.1 |
| 20260509004556 | 75 | 70 | 1.0 | 0.0 | 0.00 | 0.00 | 0.01 | 84 | 1009.1 |
| 20260509004029 | 75 | 80 | 1.0 | 0.0 | 0.00 | 0.00 | 0.01 | 84 | 1009.2 |
| 20260509003605 | 75 | 55 | 1.0 | 0.0 | 0.00 | 0.00 | 0.01 | 84 | 1009.1 |
| 20260509003059 | 75 | 71 | 1.0 | 0.0 | 0.00 | 0.00 | 0.01 | 83 | 1009.1 |
| 20260509002525 | 75 | 84 | 1.0 | 0.0 | 0.00 | 0.00 | 0.01 | 83 | 1009.1 |
| 20260509002106 | 75 | 82 | 2.0 | 0.0 | 0.00 | 0.00 | 0.01 | 83 | 1009.1 |
| 20260509001507 | 76 | 73 | 2.0 | 0.0 | 0.00 | 0.00 | 0.01 | 82 | 1009.1 |
| 20260509001042 | 76 | 71 | 1.0 | 0.0 | 0.00 | 0.00 | 0.01 | 82 | 1009.2 |
| 20260509000512 | 76 | 90 | 1.0 | 0.0 | 0.00 | 0.00 | 0.01 | 82 | 1009.2 |
| 20260509000032 | 76 | 107 | 1.0 | 0.0 | 0.00 | 0.00 | 0.01 | 82 | 1009.3 |
| 20260508235559 | 76 | 70 | 1.0 | 0.0 | 0.00 | 0.00 | 0.01 | 82 | 1009.3 |
| 20260508235029 | 76 | 69 | 1.0 | 0.0 | 0.00 | 0.00 | 0.01 | 82 | 1009.4 |
| 20260508234538 | 76 | 68 | 1.0 | 0.0 | 0.00 | 0.00 | 0.01 | 81 | 1009.3 |
| 20260508234003 | 76 | 68 | 1.0 | 0.0 | 0.00 | 0.00 | 0.01 | 81 | 1009.3 |
| 20260508233543 | 76 | 68 | 2.0 | 0.0 | 0.00 | 0.00 | 0.01 | 81 | 1009.3 |
| 20260508233042 | 77 | 77 | 2.0 | 0.0 | 0.00 | 0.00 | 0.01 | 80 | 1009.3 |
| 20260508232515 | 77 | 66 | 1.0 | 0.0 | 0.00 | 0.00 | 0.01 | 80 | 1009.3 |
| 20260508232054 | 77 | 77 | 1.0 | 0.0 | 0.00 | 0.00 | 0.01 | 80 | 1009.3 |
| 20260508231540 | 77 | 73 | 1.0 | 0.0 | 0.00 | 0.00 | 0.01 | 80 | 1009.2 |
| 20260508231016 | 77 | 143 | 1.0 | 0.0 | 0.00 | 0.00 | 0.01 | 79 | 1009.3 |
| 20260508230555 | 77 | 74 | 1.0 | 0.0 | 0.00 | 0.00 | 0.01 | 79 | 1009.3 |
| 20260508230108 | 77 | 71 | 1.0 | 0.0 | 0.00 | 0.00 | 0.01 | 79 | 1009.2 |
| 20260508225533 | 77 | 69 | 2.0 | 0.0 | 0.00 | 0.00 | 0.01 | 79 | 1009.2 |
| 20260508225003 | 77 | 130 | 1.0 | 0.0 | 0.00 | 0.00 | 0.01 | 78 | 1009.3 |
| 20260508224508 | 77 | 130 | 1.0 | 0.0 | 0.00 | 0.00 | 0.01 | 78 | 1009.3 |
| 20260508224047 | 78 | 130 | 1.0 | 0.0 | 0.00 | 0.00 | 0.01 | 78 | 1009.3 |
| 20260508223523 | 78 | 130 | 2.0 | 0.0 | 0.00 | 0.00 | 0.01 | 78 | 1009.3 |
| 20260508223031 | 78 | 131 | 2.0 | 0.0 | 0.00 | 0.00 | 0.01 | 77 | 1009.3 |
| 20260508222603 | 78 | 127 | 2.0 | 0.0 | 0.00 | 0.00 | 0.01 | 76 | 1009.3 |
| 20260508222034 | 78 | 72 | 2.0 | 0.0 | 0.00 | 0.00 | 0.01 | 76 | 1009.4 |
| 20260508221539 | 79 | 81 | 2.0 | 0.0 | 0.00 | 0.00 | 0.01 | 75 | 1009.4 |
| 20260508221013 | 79 | 56 | 2.0 | 0.0 | 0.00 | 0.00 | 0.01 | 74 | 1009.4 |
| 20260508220552 | 79 | 37 | 2.0 | 0.0 | 0.00 | 0.00 | 0.01 | 74 | 1009.4 |
| 20260508220036 | 79 | 74 | 2.0 | 0.0 | 0.00 | 0.00 | 0.01 | 74 | 1009.6 |
| 20260508215508 | 79 | 73 | 2.0 | 0.0 | 0.00 | 0.00 | 0.01 | 74 | 1009.6 |
| 20260508215045 | 79 | 80 | 2.0 | 0.0 | 0.00 | 0.00 | 0.01 | 74 | 1009.7 |
| 20260508214600 | 80 | 92 | 2.0 | 0.0 | 0.00 | 0.00 | 0.01 | 74 | 1009.8 |
| 20260508214026 | 79 | 67 | 2.0 | 0.0 | 0.00 | 0.00 | 0.01 | 77 | 1009.7 |
| 20260508213603 | 79 | 86 | 2.0 | 0.0 | 0.00 | 0.00 | 0.01 | 74 | 1009.7 |
| 20260508213008 | 79 | 51 | 3.0 | 0.0 | 0.00 | 0.00 | 0.01 | 76 | 1009.8 |
| 20260508212648 | 78 | 92 | 2.0 | 0.0 | 0.00 | 0.00 | 0.01 | 76 | 1009.8 |
| 20260508212004 | 79 | 148 | 2.0 | 0.0 | 0.00 | 0.00 | 0.01 | 75 | 1009.9 |
| 20260508211557 | 79 | 131 | 2.0 | 0.0 | 0.00 | 0.00 | 0.01 | 73 | 1010.1 |
| 20260508211034 | 79 | 128 | 2.0 | 0.0 | 0.00 | 0.00 | 0.01 | 75 | 1010.1 |
| 20260508210505 | 78 | 133 | 1.0 | 0.0 | 0.00 | 0.00 | 0.01 | 77 | 1010.1 |
| 20260508210113 | 78 | 137 | 1.0 | 0.0 | 0.00 | 0.00 | 0.01 | 74 | 1010.3 |
| 20260508205538 | 78 | 82 | 1.0 | 0.0 | 0.00 | 0.00 | 0.01 | 74 | 1010.5 |
| 20260508205013 | 78 | 76 | 2.0 | 0.0 | 0.00 | 0.00 | 0.01 | 75 | 1010.6 |
| 20260508204606 | 78 | 75 | 2.0 | 0.0 | 0.00 | 0.00 | 0.01 | 76 | 1010.5 |
| 20260508204033 | 77 | 66 | 2.0 | 0.0 | 0.00 | 0.00 | 0.01 | 76 | 1010.6 |
| 20260508203503 | 77 | 86 | 2.0 | 0.0 | 0.00 | 0.00 | 0.01 | 75 | 1010.7 |
| 20260508203009 | 77 | 67 | 3.0 | 0.0 | 0.00 | 0.00 | 0.01 | 74 | 1010.9 |
| 20260508202547 | 78 | 138 | 2.0 | 0.0 | 0.00 | 0.00 | 0.01 | 74 | 1010.9 |
| 20260508202016 | 77 | 58 | 2.0 | 0.0 | 0.00 | 0.00 | 0.01 | 76 | 1011.0 |
| 20260508201525 | 77 | 60 | 3.0 | 0.0 | 0.00 | 0.00 | 0.01 | 76 | 1011.0 |
| 20260508201059 | 77 | 50 | 3.0 | 0.0 | 0.00 | 0.00 | 0.01 | 74 | 1011.0 |